Showing default

IRIDIUM 157, 43251

Orbit data source: Space-Track

IRIDIUM 157, 43251 is a payload satellite owned by Iridium (US) in LEO that was launched on Fri, 30 Mar 2018 UTC via an FALCON 9 launch vehicle from the Air Force Western Test Range (AFWTR). Payload-class satellites include a variety of spacecraft equipped with specific instruments for various scientific and technological missions. These include communications satellites like Starlink; space stations such as the ISS; scientific satellites like the Hubble; Earth observation satellites from companies like Planet Labs, Umbra, and HawkEye 360; GPS; miniature CubeSats for education and research; and military/defense satellites.

Loading next visibility...
Identifier
43251, 2018-030C
Orbit
LEO
Country
Flag of USUS
Related business
Manufacturer
OATK SSG Gilbert
Mission
Operational Commercial Communications
Bus & Motor
ELITEBUS, Unknown motor
Mass
860 kg wet, 700 kg dry
Launch date (UTC)
2018-03-30 (8 years ago)
Launch vehicle
FALCON 9
Launch site
Air Force Western Test Range (AFWTR)
Object type
Payload
Rocket body
Debris
Shape & HBR
Trap Box + 2 Pan, 4.8 m
Radar Cross Section
10.154 m², Large (>1 m²)

Expand to show TLE details & history
Last TLE update: 8 hours ago

TLE from 8 hours ago
0 IRIDIUM 157
1 43251U 18030C   26035.41670609  .00000095  00000-0  26912-4 0  9994
2 43251  86.4010 345.9262 0002159  86.2688 273.8754 14.34217921411109
Epoch: 2026-02-04T10:00Z
TLE epoch observation values (Epoch: 2026-02-04T10:00:03.406Z)
Latitude
-0.00007°
Longitude
61.32841°
Altitude
780.613 km
Speed
7.464 km/s
True Right ascension
23h 03m 42s
True Declination
0° 00' 00"
Sunlit
Object was in daylight at epoch
Visualization orbit readout
Latitude
Unknown
Longitude
Unknown
Altitude
Unknown
Speed
Unknown
Apparent Right ascension
Unknown
Apparent Declination
Unknown
Sunlit
N/A
Visualization observer readout
Local Sidereal Time
20:18:16
Azimuth
Unknown
Elevation
Unknown
Doppler factor
Unknown
Orbital elements
Apogee altitude
776.175 km
Perigee altitude
773.087 km
Semi-major axis
7,152.768 km
Eccentricity
0.00022
Inclination
86.401°
RAAN
345.9262°
Arg. of periapsis
86.2688°
True anomaly
273.85072°
Mean anomaly
273.8754°
Eccentric anomaly
273.86306°
Mean motion
3.58783 °/min
Orbital period
100.34 mins
BSTAR
0.000026912
Loading maneuver chart data...
Computing Atmospheric mass density...
Loading historical data...
Loading historical data...
Loading historical data...
Loading historical data...
Loading historical data...
Loading historical data...
Loading historical data...

Documentation

Showing up to 5 results
|